Tracking 19832 objects as of 24-Aug-2019
HD Live streaming from Space Station
objects crossing your sky now

INSAT 3A

Track INSAT 3A now!
INSAT 3A is classified as:


NORAD ID: 27714
Int'l Code: 2003-013A
Perigee: 35,879.0 km
Apogee: 35,967.4 km
Inclination: 2.9 °
Period: 1,442.7 minutes
Semi major axis: 42294 km
RCS: 22.0529 m2 (large)
Launch date: April 9, 2003
Source: India (IND)
Launch site: FRENCH GUIANA (FRGUI)

12 C-band, 6 extended C-band, 6 Ku-band for voice, video and data transmission to West Asia, East Asia, India; augment present INSAT capacity for communication and meteorological services.
aabbcc
Your satellite tracking list
Your tracking list is empty




NASA's NSSDC Master Catalog

Two Line Element Set (TLE):
1 27714U 03013A   19235.82354459 +.00000004 +00000-0 +00000-0 0  9992
2 27714 002.8822 083.4446 0010454 257.4011 113.0330 00.99811800059885
Source of the keplerian elements: AFSPC